SCP
0 0 0 0 0 0 0 0 0 0 0 0 0 0 0 0 0 0 0 0 0 0 0 0 0 0 0 0 0 0 0 0 0 0 0 0 0 0 0 0 0 0 0
0 0 0 0 0 0 0 0 0 0 0 0 0 0 0 0 0 0 0 0 0 0 0 0 0 0 0 0 0 0 0 0 0 0 0 0 0 0 0 0 0 0 0
0 0 0 0 0 0 0 0 0 0 0 0 0 0 0 0 0 0 0 0 0 0 0 0 0 0 0 0 0 0 0 0 0 0 0 0 0 0 0 0 0 0 0
0 0 0 0 0 0 0 0 0 0 0 0 0 0 0 0 0 0 0 0 0 0 0 0 0 0 0 0 0 0 0 0 0 0 0 0 0 0 0 0 0 0 0
0 0 0 0 0 0 0 0 0 0 0 0 0 0 0 0 0 0 0 0 0 0 0 0 0 0 -0 0 0 0 0 0 0 0 0 0 0 0 0 0 0 0 0
0 0 0 0 0 0 0 0 0 0 0 0 0 0 0 0 0 0 0 0 0 0 0 0 0 -0 -0 -0 0 0 0 0 0 0 0 0 0 0 0 0 0 0 0
0 0 0 0 0 0 0 0 0 0 0 0 0 0 0 0 0 0 0 0 0 0 -0 0 0 0 -0 0 0 0 0 0 0 0 0 0 0 0 0 0 0 0 0
0 0 0 0 0 0 0 0 0 0 0 0 0 0 0 0 0 0 0 0 0 0 0 0 0 0 -0 0 0 0 0 0 0 0 0 0 0 0 0 0 0 0 0
0 0 0 0 0 0 0 0 0 0 0 0 0 0 0 0 0 0 0 0 0 0 0 0 0 0 -0 -0 0 0 0 0 0 0 0 0 0 0 0 0 0 0 0
0 0 0 0 0 0 0 0 0 0 0 0 0 0 0 0 0 0 0 0 0 -0 0 0 0 0 0 -0 0 0 0 0 0 0 0 0 0 0 0 0 0 0 0
0 0 0 0 0 0 0 0 0 0 0 0 0 0 0 0 0 0 0 0 0 -0 0 0 0 0 0 0 0 0 0 0 0 0 0 0 0 0 0 0 0 0 0
0 0 0 0 0 0 0 0 0 0 0 0 0 0 0 0 0 0 0 0 0 -0 -0 0 0 -0 0 0 0 0 0 0 0 0 0 0 0 0 0 0 0 0 0
0 0 0 0 0 0 0 0 0 0 0 0 0 0 0 0 0 0 0 0 0 0 -0 0 -0 -0 0 0 0 0 0 0 0 0 0 0 0 0 0 0 0 0 0
0 0 0 0 0 0 0 0 0 0 0 0 0 0 0 0 0 0 0 0 0 0 0 0 0 0 0 0 0 0 0 0 0 0 0 0 0 0 0 0 0 0 0
0 0 0 0 0 0 0 0 0 0 0 0 0 0 0 0 0 0 0 0 0 0 0 0 0 0 0 0 0 0 0 0 0 0 0 0 0 0 0 0 0 0 0
0 0 0 0 0 0 0 0 0 0 0 0 0 0 0 0 0 0 0 0 0 0 0 0 0 0 0 0 0 0 0 0 0 0 0 0 0 0 0 0 0 0 0
0 0 0 0 0 0 0 0 0 0 0 0 0 0 0 0 0 0 0 0 0 0 0 0 0 0 0 0 0 0 0 0 0 0 0 0 0 0 0 0 0 0 0
0 0 0 0 0 0 0 0 0 0 0 0 0 0 0 0 0 0 0 0 0 0 0 0 0 0 0 0 0 0 0 0 0 0 0 0 0 0 0 0 0 0 0
0 0 0 0 0 0 0 0 0 0 0 0 0 0 0 0 0 0 0 0 0 0 0 0 0 0 0 0 0 0 0 0 0 0 0 0 0 0 0 0 0 0 0
0 0 0 0 0 0 0 0 0 0 0 0 0 0 0 0 0 0 0 0 0 0 0 0 0 0 0 0 0 0 0 0 0 0 0 0 0 0 0 0 0 0 0
0 0 0 0 0 0 0 0 0 0 0 0 0 0 0 0 0 0 0 0 0 0 0 0 0 0 0 0 0 0 0 0 0 0 0 0 0 0 0 0 0 0 0
0 0 0 0 0 0 0 0 0 0 0 0 0 0 0 0 0 0 0 0 0 0 0 0 0 0 0 0 0 0 0 0 0 0 0 0 0 0 0 0 0 0 0
0 0 0 0 0 0 0 0 0 0 0 0 0 0 0 0 0 0 0 0 0 0 0 0 0 0 -0 0 0 0 0 0 0 0 0 0 0 0 0 0 0 0 0
0 0 0 0 0 0 0 0 0 0 0 0 0 0 0 0 0 0 0 0 0 0 0 0 0 0 -0 0 0 0 0 0 0 0 0 0 0 0 0 0 0 0 0
0 0 0 0 0 0 0 0 0 0 0 0 0 0 0 0 0 0 0 0 0 0 0 0 0 0 -0 -0 0 0 0 0 0 0 0 0 0 0 0 0 0 0 0
0 0 0 0 0 0 0 0 0 0 0 0 0 0 0 0 0 0 0 0 0 0 0 -0 -0 -0 -0 -0 -0 0 0 0 0 0 0 0 0 0 0 0 0 0 0
Wind_Speed_500mb
17 20 22 28 33 38 43 46 47 47 45 39 32 22 22 24 27 33 33 33 39 43 42 39 42 50 60 53 30 14 9 11 13 14 7 8 12 16 20 19 20 17 14
16 16 19 26 31 36 41 44 45 46 45 41 35 26 19 20 23 27 32 31 35 42 46 45 43 47 57 58 43 27 13 11 15 21 21 20 16 17 17 16 14 13 10
13 11 16 23 30 37 42 44 45 46 45 41 36 30 21 19 22 25 27 27 29 33 39 46 47 44 50 60 50 38 20 9 9 13 12 12 21 22 23 22 19 17 14
10 9 13 21 29 36 42 43 45 45 44 41 36 30 22 18 23 28 28 24 27 28 32 38 44 43 44 55 53 46 32 15 8 7 10 9 12 16 19 20 18 17 15
8 4 10 20 27 34 38 41 43 44 43 40 34 29 23 18 28 35 30 24 26 26 29 34 39 39 30 43 49 46 40 25 12 4 1 5 6 11 15 16 17 14 15
10 4 7 16 23 30 34 37 40 41 41 38 35 31 26 23 34 36 29 26 28 25 29 31 37 37 33 35 46 46 37 33 24 12 9 10 10 10 12 15 14 15 13
14 7 4 12 19 26 32 34 36 39 41 40 38 33 27 23 35 38 28 24 24 27 27 30 31 37 35 37 34 44 41 34 30 21 16 13 12 10 9 11 12 13 12
20 13 4 7 16 23 27 31 33 36 39 42 42 39 29 24 34 37 30 23 21 24 26 27 30 33 34 37 32 40 43 40 36 29 23 18 16 12 7 9 10 13 18
25 18 8 5 13 19 22 26 29 32 36 41 43 42 38 30 35 42 36 25 21 21 20 21 24 26 29 31 33 31 37 39 36 31 24 17 14 11 8 7 13 11 19
29 22 13 7 10 14 18 22 26 30 34 36 38 41 43 38 37 45 45 35 26 23 17 15 18 19 25 28 29 31 34 37 37 33 28 27 25 19 15 9 4 6 11
34 27 18 11 8 11 15 19 24 26 28 31 34 37 42 47 43 47 46 44 36 28 20 14 17 14 21 25 29 28 26 29 35 32 31 31 29 25 21 15 10 7 11
37 31 22 14 10 9 11 14 18 20 23 27 31 36 41 46 53 49 49 44 36 29 19 14 13 14 18 21 24 23 21 26 29 30 32 33 30 30 25 21 16 12 12
43 35 27 19 12 8 7 10 12 16 21 27 32 37 42 46 59 54 59 49 37 29 15 8 9 12 14 18 15 18 20 26 29 31 35 36 31 24 24 24 25 23 18
45 39 32 24 16 10 4 5 9 13 17 26 32 36 39 47 56 57 60 56 44 30 10 5 6 9 12 16 13 18 23 29 32 34 34 34 32 24 25 23 24 25 25
48 42 35 28 21 15 8 2 8 13 18 25 30 33 37 43 44 44 54 58 46 32 19 10 7 8 8 12 16 23 21 24 34 34 31 33 35 30 27 21 25 25 30
53 47 39 32 25 17 10 3 3 8 13 16 21 26 30 30 31 38 50 57 47 32 18 10 11 13 12 16 19 20 22 28 30 34 34 33 34 34 29 21 19 21 27
51 47 42 34 26 18 11 5 2 6 9 11 15 20 23 28 30 36 43 50 43 27 18 12 12 13 13 14 18 23 26 32 30 31 34 33 32 32 31 26 19 16 21
53 46 39 33 29 22 17 13 8 5 6 9 11 14 19 23 25 28 33 34 39 35 27 20 12 11 12 12 12 17 17 22 30 33 29 31 32 32 32 30 22 19 18
59 53 45 38 32 25 18 14 9 6 5 6 10 13 14 17 21 23 28 34 40 42 35 26 19 11 9 8 10 10 15 14 21 28 30 27 30 32 32 30 25 17 16
58 51 45 39 32 25 19 16 13 10 8 11 9 6 7 10 12 15 19 26 29 34 37 33 25 17 8 5 5 6 10 8 10 17 26 27 26 29 31 29 24 20 17
61 56 49 42 35 28 24 19 18 14 13 13 16 12 8 6 9 12 15 16 20 24 27 31 31 25 17 8 4 4 4 2 7 11 15 22 23 25 28 28 23 19 16
57 53 49 41 36 31 25 23 21 18 16 16 18 18 14 9 8 9 10 12 13 16 20 23 27 28 25 17 8 6 5 4 2 5 9 14 20 19 23 24 23 18 17
58 54 48 43 37 34 31 26 25 23 22 20 20 20 21 16 12 11 10 8 8 10 11 15 16 21 25 26 19 10 7 10 7 4 3 7 11 16 17 20 22 19 16
56 51 46 42 40 38 34 31 28 28 26 25 26 24 24 22 18 16 13 11 9 7 9 9 11 12 15 20 23 21 12 6 11 10 5 1 3 9 12 13 18 20 14
53 50 46 43 41 37 35 37 33 30 28 28 28 28 27 26 24 21 19 15 13 11 10 10 9 9 9 11 15 18 19 13 8 13 11 8 6 2 7 12 12 13 12
48 47 46 43 42 41 39 36 35 33 30 30 32 31 30 29 28 27 24 21 18 14 13 13 13 11 8 8 8 12 16 18 12 8 14 13 11 9 2 4 8 9 11
Wind_Direction_500mb
319 336 345 351 345 349 351 349 349 350 349 350 349 331 322 330 339 355 7 9 15 19 19 20 11 5 6 13 4 333 310 268 267 272 297 273 243 236 232 230 224 226 229
313 337 347 352 347 352 356 354 355 355 354 357 358 349 334 330 338 353 2 9 13 17 18 19 13 8 3 12 14 2 319 302 279 278 275 261 240 234 233 224 218 220 227
308 331 350 352 349 358 1 358 359 359 358 360 1 358 349 339 345 350 357 6 13 15 17 17 21 10 5 9 15 16 11 335 284 264 259 240 230 231 233 230 226 231 244
289 316 358 352 356 3 5 1 2 2 1 2 3 4 358 347 351 348 350 358 7 8 13 18 21 16 12 12 13 17 14 1 324 250 233 228 222 219 218 220 219 224 229
250 301 7 356 3 10 8 3 5 3 5 6 5 6 8 359 8 359 344 350 356 4 7 17 20 23 14 16 16 14 20 23 26 37 210 196 187 180 186 184 182 187 186
222 209 20 4 11 13 10 8 7 7 10 10 10 11 14 17 21 5 351 348 352 355 1 12 14 23 20 19 13 18 20 29 47 64 93 115 123 144 142 157 161 159 140
204 178 37 11 20 18 15 15 10 12 15 18 19 16 17 18 21 10 360 350 349 350 356 3 11 17 28 32 7 18 25 35 42 48 69 82 93 98 135 144 156 176 179
196 174 128 27 32 26 21 18 17 18 19 21 25 24 19 15 19 5 359 352 345 348 353 358 2 12 29 30 17 14 24 28 32 37 46 59 70 65 85 137 137 161 164
191 171 160 89 49 35 24 24 21 23 25 24 25 25 27 17 19 9 359 355 344 341 350 355 355 7 25 32 22 24 25 31 29 31 36 51 62 78 82 109 104 113 147
186 173 170 138 77 52 34 30 26 26 30 27 25 24 24 21 21 13 5 358 346 339 345 355 358 5 27 30 19 25 29 30 30 33 45 59 61 76 92 106 108 161 152
186 176 175 154 107 71 50 39 34 28 29 28 26 25 23 22 25 16 7 358 356 341 339 354 8 18 34 33 31 29 33 34 37 36 45 57 67 67 76 88 76 120 204
185 178 177 164 141 99 70 55 42 34 25 29 28 27 26 22 24 18 7 3 358 338 333 0 18 30 33 33 47 37 48 47 41 44 46 48 55 59 58 69 66 81 127
186 181 177 175 167 128 87 61 44 32 24 30 30 28 25 21 22 7 7 4 2 354 331 8 41 43 38 36 44 47 51 53 53 50 50 45 45 51 51 57 76 86 98
185 183 184 180 172 158 120 54 35 31 20 25 26 29 25 24 23 2 7 9 16 18 52 59 73 63 51 40 49 59 55 57 52 52 49 46 46 59 64 52 81 95 103
187 188 186 180 182 181 167 73 17 16 25 17 19 21 20 25 18 6 9 12 15 27 48 65 88 95 82 67 53 64 64 64 60 55 53 50 49 56 62 66 80 100 107
190 189 187 187 185 186 178 180 12 18 24 14 9 12 20 19 14 13 13 13 14 28 30 74 74 73 68 66 66 57 54 59 62 57 54 52 50 54 59 77 89 101 104
193 190 189 188 186 183 183 186 329 348 357 10 2 6 13 17 18 17 16 14 16 23 37 59 63 79 73 59 58 64 55 52 56 63 60 55 52 52 61 66 93 113 114
190 193 194 189 190 190 194 194 199 222 302 341 352 357 6 14 18 18 22 17 26 33 44 50 49 47 70 75 64 67 63 50 52 59 61 58 56 52 56 59 74 102 131
192 193 194 195 196 197 201 211 217 236 280 316 342 350 355 360 11 16 16 18 29 32 37 41 42 41 44 55 62 64 61 46 51 53 56 62 58 57 52 57 61 85 120
196 197 200 201 201 203 207 222 236 243 262 290 304 314 336 345 354 15 24 25 26 32 35 35 37 32 31 23 29 54 73 58 50 52 53 56 62 57 59 56 60 71 96
196 199 202 205 205 207 214 224 236 241 256 266 284 300 311 316 337 1 23 24 26 26 29 35 37 32 25 12 328 331 40 64 51 54 52 51 55 61 57 58 56 59 83
201 204 207 207 211 214 221 232 246 247 251 255 265 281 289 296 304 323 347 16 17 22 23 19 23 34 33 27 6 302 280 289 321 28 37 43 45 56 60 59 61 57 72
205 207 207 208 216 223 228 234 245 252 257 258 256 259 269 272 271 275 293 323 358 5 11 22 14 13 19 22 23 10 286 265 272 291 9 39 39 39 57 60 59 61 62
207 210 212 216 222 228 234 240 243 250 253 255 256 254 256 261 261 260 264 276 299 324 340 350 4 14 12 12 11 15 10 288 258 259 262 285 51 47 50 57 57 60 65
210 213 217 219 226 233 238 244 246 248 249 251 251 252 253 254 258 258 259 262 270 285 298 311 323 340 359 359 2 4 10 2 291 255 249 231 226 282 30 48 58 50 65
211 216 219 222 227 233 241 245 249 245 244 248 250 248 248 248 251 255 257 258 263 268 276 283 287 298 304 328 333 344 352 360 355 286 245 238 225 223 242 35 52 48 52
Wind_Speed_850mb
17 20 22 28 33 38 43 46 47 47 45 39 32 22 22 24 27 33 33 33 39 43 42 39 42 50 60 53 30 14 9 11 13 14 7 8 12 16 20 19 20 17 14
16 16 19 26 31 36 41 44 45 46 45 41 35 26 19 20 23 27 32 31 35 42 46 45 43 47 57 58 43 27 13 11 15 21 21 20 16 17 17 16 14 13 10
13 11 16 23 30 37 42 44 45 46 45 41 36 30 21 19 22 25 27 27 29 33 39 46 47 44 50 60 50 38 20 9 9 13 12 12 21 22 23 22 19 17 14
10 9 13 21 29 36 42 43 45 45 44 41 36 30 22 18 23 28 28 24 27 28 32 38 44 43 44 55 53 46 32 15 8 7 10 9 12 16 19 20 18 17 15
8 4 10 20 27 34 38 41 43 44 43 40 34 29 23 18 28 35 30 24 26 26 29 34 39 39 30 43 49 46 40 25 12 4 1 5 6 11 15 16 17 14 15
10 4 7 16 23 30 34 37 40 41 41 38 35 31 26 23 34 36 29 26 28 25 29 31 37 37 33 35 46 46 37 33 24 12 9 10 10 10 12 15 14 15 13
14 7 4 12 19 26 32 34 36 39 41 40 38 33 27 23 35 38 28 24 24 27 27 30 31 37 35 37 34 44 41 34 30 21 16 13 12 10 9 11 12 13 12
20 13 4 7 16 23 27 31 33 36 39 42 42 39 29 24 34 37 30 23 21 24 26 27 30 33 34 37 32 40 43 40 36 29 23 18 16 12 7 9 10 13 18
25 18 8 5 13 19 22 26 29 32 36 41 43 42 38 30 35 42 36 25 21 21 20 21 24 26 29 31 33 31 37 39 36 31 24 17 14 11 8 7 13 11 19
29 22 13 7 10 14 18 22 26 30 34 36 38 41 43 38 37 45 45 35 26 23 17 15 18 19 25 28 29 31 34 37 37 33 28 27 25 19 15 9 4 6 11
34 27 18 11 8 11 15 19 24 26 28 31 34 37 42 47 43 47 46 44 36 28 20 14 17 14 21 25 29 28 26 29 35 32 31 31 29 25 21 15 10 7 11
37 31 22 14 10 9 11 14 18 20 23 27 31 36 41 46 53 49 49 44 36 29 19 14 13 14 18 21 24 23 21 26 29 30 32 33 30 30 25 21 16 12 12
43 35 27 19 12 8 7 10 12 16 21 27 32 37 42 46 59 54 59 49 37 29 15 8 9 12 14 18 15 18 20 26 29 31 35 36 31 24 24 24 25 23 18
45 39 32 24 16 10 4 5 9 13 17 26 32 36 39 47 56 57 60 56 44 30 10 5 6 9 12 16 13 18 23 29 32 34 34 34 32 24 25 23 24 25 25
48 42 35 28 21 15 8 2 8 13 18 25 30 33 37 43 44 44 54 58 46 32 19 10 7 8 8 12 16 23 21 24 34 34 31 33 35 30 27 21 25 25 30
53 47 39 32 25 17 10 3 3 8 13 16 21 26 30 30 31 38 50 57 47 32 18 10 11 13 12 16 19 20 22 28 30 34 34 33 34 34 29 21 19 21 27
51 47 42 34 26 18 11 5 2 6 9 11 15 20 23 28 30 36 43 50 43 27 18 12 12 13 13 14 18 23 26 32 30 31 34 33 32 32 31 26 19 16 21
53 46 39 33 29 22 17 13 8 5 6 9 11 14 19 23 25 28 33 34 39 35 27 20 12 11 12 12 12 17 17 22 30 33 29 31 32 32 32 30 22 19 18
59 53 45 38 32 25 18 14 9 6 5 6 10 13 14 17 21 23 28 34 40 42 35 26 19 11 9 8 10 10 15 14 21 28 30 27 30 32 32 30 25 17 16
58 51 45 39 32 25 19 16 13 10 8 11 9 6 7 10 12 15 19 26 29 34 37 33 25 17 8 5 5 6 10 8 10 17 26 27 26 29 31 29 24 20 17
61 56 49 42 35 28 24 19 18 14 13 13 16 12 8 6 9 12 15 16 20 24 27 31 31 25 17 8 4 4 4 2 7 11 15 22 23 25 28 28 23 19 16
57 53 49 41 36 31 25 23 21 18 16 16 18 18 14 9 8 9 10 12 13 16 20 23 27 28 25 17 8 6 5 4 2 5 9 14 20 19 23 24 23 18 17
58 54 48 43 37 34 31 26 25 23 22 20 20 20 21 16 12 11 10 8 8 10 11 15 16 21 25 26 19 10 7 10 7 4 3 7 11 16 17 20 22 19 16
56 51 46 42 40 38 34 31 28 28 26 25 26 24 24 22 18 16 13 11 9 7 9 9 11 12 15 20 23 21 12 6 11 10 5 1 3 9 12 13 18 20 14
53 50 46 43 41 37 35 37 33 30 28 28 28 28 27 26 24 21 19 15 13 11 10 10 9 9 9 11 15 18 19 13 8 13 11 8 6 2 7 12 12 13 12
48 47 46 43 42 41 39 36 35 33 30 30 32 31 30 29 28 27 24 21 18 14 13 13 13 11 8 8 8 12 16 18 12 8 14 13 11 9 2 4 8 9 11
Wind_Direction_850mb
319 336 345 351 345 349 351 349 349 350 349 350 349 331 322 330 339 355 7 9 15 19 19 20 11 5 6 13 4 333 310 268 267 272 297 273 243 236 232 230 224 226 229
313 337 347 352 347 352 356 354 355 355 354 357 358 349 334 330 338 353 2 9 13 17 18 19 13 8 3 12 14 2 319 302 279 278 275 261 240 234 233 224 218 220 227
308 331 350 352 349 358 1 358 359 359 358 360 1 358 349 339 345 350 357 6 13 15 17 17 21 10 5 9 15 16 11 335 284 264 259 240 230 231 233 230 226 231 244
289 316 358 352 356 3 5 1 2 2 1 2 3 4 358 347 351 348 350 358 7 8 13 18 21 16 12 12 13 17 14 1 324 250 233 228 222 219 218 220 219 224 229
250 301 7 356 3 10 8 3 5 3 5 6 5 6 8 359 8 359 344 350 356 4 7 17 20 23 14 16 16 14 20 23 26 37 210 196 187 180 186 184 182 187 186
222 209 20 4 11 13 10 8 7 7 10 10 10 11 14 17 21 5 351 348 352 355 1 12 14 23 20 19 13 18 20 29 47 64 93 115 123 144 142 157 161 159 140
204 178 37 11 20 18 15 15 10 12 15 18 19 16 17 18 21 10 360 350 349 350 356 3 11 17 28 32 7 18 25 35 42 48 69 82 93 98 135 144 156 176 179
196 174 128 27 32 26 21 18 17 18 19 21 25 24 19 15 19 5 359 352 345 348 353 358 2 12 29 30 17 14 24 28 32 37 46 59 70 65 85 137 137 161 164
191 171 160 89 49 35 24 24 21 23 25 24 25 25 27 17 19 9 359 355 344 341 350 355 355 7 25 32 22 24 25 31 29 31 36 51 62 78 82 109 104 113 147
186 173 170 138 77 52 34 30 26 26 30 27 25 24 24 21 21 13 5 358 346 339 345 355 358 5 27 30 19 25 29 30 30 33 45 59 61 76 92 106 108 161 152
186 176 175 154 107 71 50 39 34 28 29 28 26 25 23 22 25 16 7 358 356 341 339 354 8 18 34 33 31 29 33 34 37 36 45 57 67 67 76 88 76 120 204
185 178 177 164 141 99 70 55 42 34 25 29 28 27 26 22 24 18 7 3 358 338 333 0 18 30 33 33 47 37 48 47 41 44 46 48 55 59 58 69 66 81 127
186 181 177 175 167 128 87 61 44 32 24 30 30 28 25 21 22 7 7 4 2 354 331 8 41 43 38 36 44 47 51 53 53 50 50 45 45 51 51 57 76 86 98
185 183 184 180 172 158 120 54 35 31 20 25 26 29 25 24 23 2 7 9 16 18 52 59 73 63 51 40 49 59 55 57 52 52 49 46 46 59 64 52 81 95 103
187 188 186 180 182 181 167 73 17 16 25 17 19 21 20 25 18 6 9 12 15 27 48 65 88 95 82 67 53 64 64 64 60 55 53 50 49 56 62 66 80 100 107
190 189 187 187 185 186 178 180 12 18 24 14 9 12 20 19 14 13 13 13 14 28 30 74 74 73 68 66 66 57 54 59 62 57 54 52 50 54 59 77 89 101 104
193 190 189 188 186 183 183 186 329 348 357 10 2 6 13 17 18 17 16 14 16 23 37 59 63 79 73 59 58 64 55 52 56 63 60 55 52 52 61 66 93 113 114
190 193 194 189 190 190 194 194 199 222 302 341 352 357 6 14 18 18 22 17 26 33 44 50 49 47 70 75 64 67 63 50 52 59 61 58 56 52 56 59 74 102 131
192 193 194 195 196 197 201 211 217 236 280 316 342 350 355 360 11 16 16 18 29 32 37 41 42 41 44 55 62 64 61 46 51 53 56 62 58 57 52 57 61 85 120
196 197 200 201 201 203 207 222 236 243 262 290 304 314 336 345 354 15 24 25 26 32 35 35 37 32 31 23 29 54 73 58 50 52 53 56 62 57 59 56 60 71 96
196 199 202 205 205 207 214 224 236 241 256 266 284 300 311 316 337 1 23 24 26 26 29 35 37 32 25 12 328 331 40 64 51 54 52 51 55 61 57 58 56 59 83
201 204 207 207 211 214 221 232 246 247 251 255 265 281 289 296 304 323 347 16 17 22 23 19 23 34 33 27 6 302 280 289 321 28 37 43 45 56 60 59 61 57 72
205 207 207 208 216 223 228 234 245 252 257 258 256 259 269 272 271 275 293 323 358 5 11 22 14 13 19 22 23 10 286 265 272 291 9 39 39 39 57 60 59 61 62
207 210 212 216 222 228 234 240 243 250 253 255 256 254 256 261 261 260 264 276 299 324 340 350 4 14 12 12 11 15 10 288 258 259 262 285 51 47 50 57 57 60 65
210 213 217 219 226 233 238 244 246 248 249 251 251 252 253 254 258 258 259 262 270 285 298 311 323 340 359 359 2 4 10 2 291 255 249 231 226 282 30 48 58 50 65
211 216 219 222 227 233 241 245 249 245 244 248 250 248 248 248 251 255 257 258 263 268 276 283 287 298 304 328 333 344 352 360 355 286 245 238 225 223 242 35 52 48 52